User: anonymous
Location: Castro Valley
(37.6940°N, 122.0850°W)
Time: 01:00:36
(UTC-07:00)
Language:

PANSAT - Orbit

View from above orbital plane
View from above orbital plane
View from above satellite
View from above satellite

Ground track
Ground track

The orbit data is extracted from the following two-line orbital elements,

1 25520U 98064B   14237.78921228  .00002950  00000-0  11057-3 0  5558
2 25520 028.4582 118.8188 0004268 150.8217 285.4092 15.23807844877266
Epoch (UTC): 25 August 2014 18:56:27
Eccentricity: 0.0004268
inclination: 28.4582°
perigee height: 491 km
apogee height: 497 km
right ascension of ascending node: 118.8188°
argument of perigee: 150.8217°
revolutions per day: 15.23807844
mean anomaly at epoch: 285.4092°
orbit number at epoch: 87726

The dashed part of the orbit path shows where the satellite is in the earth's shadow,  

DLR